TimeCDT,TemperatureF,Dew PointF,Humidity,Sea Level PressureIn,VisibilityMPH,Wind Direction,Wind SpeedMPH,Gust SpeedMPH,PrecipitationIn,Events,Conditions,WindDirDegrees,DateUTC
12:53 AM,68.0,63.0,84,30.11,10.0,South,3.5,-,N/A,,Clear,180,2013-08-24 05:53:00
1:53 AM,69.1,63.0,81,30.11,10.0,Variable,3.5,-,N/A,,Clear,0,2013-08-24 06:53:00
2:53 AM,68.0,62.1,81,30.12,10.0,South,3.5,-,N/A,,Clear,190,2013-08-24 07:53:00
3:53 AM,68.0,61.0,78,30.12,10.0,Calm,Calm,-,N/A,,Clear,0,2013-08-24 08:53:00
4:53 AM,66.9,61.0,81,30.12,10.0,SSE,3.5,-,N/A,,Partly Cloudy,160,2013-08-24 09:53:00
5:53 AM,64.9,60.1,84,30.13,10.0,South,3.5,-,N/A,,Partly Cloudy,170,2013-08-24 10:53:00
6:53 AM,66.0,60.1,81,30.14,10.0,SSE,4.6,-,N/A,,Mostly Cloudy,150,2013-08-24 11:53:00
7:53 AM,68.0,60.1,76,30.15,10.0,South,8.1,-,N/A,,Clear,170,2013-08-24 12:53:00
8:53 AM,70.0,60.1,71,30.14,10.0,South,9.2,-,N/A,,Scattered Clouds,170,2013-08-24 13:53:00
9:53 AM,68.0,63.0,84,30.14,10.0,South,4.6,-,0.01,,Mostly Cloudy,170,2013-08-24 14:53:00
10:53 AM,73.9,62.1,66,30.12,10.0,South,9.2,-,N/A,,Mostly Cloudy,170,2013-08-24 15:53:00
11:53 AM,78.1,63.0,60,30.10,10.0,SSE,15.0,20.7,N/A,,Partly Cloudy,150,2013-08-24 16:53:00
12:53 PM,79.0,64.0,60,30.09,10.0,SSE,10.4,17.3,N/A,,Clear,160,2013-08-24 17:53:00
1:53 PM,81.0,64.0,56,30.06,10.0,South,13.8,21.9,N/A,,Clear,180,2013-08-24 18:53:00
2:53 PM,84.0,66.0,55,30.04,10.0,South,11.5,17.3,N/A,,Clear,190,2013-08-24 19:53:00
3:53 PM,84.0,64.9,53,30.02,10.0,SSW,9.2,19.6,N/A,,Clear,200,2013-08-24 20:53:00
4:53 PM,84.0,66.0,55,30.02,10.0,South,17.3,24.2,N/A,,Clear,180,2013-08-24 21:53:00
5:53 PM,82.9,66.9,58,30.01,10.0,South,12.7,19.6,N/A,,Clear,180,2013-08-24 22:53:00
6:53 PM,81.0,68.0,65,29.99,10.0,South,11.5,20.7,N/A,,Scattered Clouds,170,2013-08-24 23:53:00
7:53 PM,80.1,68.0,67,29.98,10.0,South,12.7,19.6,N/A,,Clear,170,2013-08-25 00:53:00
8:53 PM,79.0,69.1,72,29.97,10.0,South,16.1,20.7,N/A,,Clear,180,2013-08-25 01:53:00
9:53 PM,78.1,69.1,74,29.95,10.0,South,10.4,24.2,N/A,,Clear,180,2013-08-25 02:53:00
10:45 PM,78.8,69.8,74,29.98,10.0,South,13.8,24.2,N/A,,Mostly Cloudy,180,2013-08-25 03:45:00
10:53 PM,78.1,70.0,76,29.97,10.0,South,10.4,21.9,N/A,,Mostly Cloudy,190,2013-08-25 03:53:00
11:48 PM,77.0,69.8,78,30.00,10.0,South,10.4,18.4,N/A,,Scattered Clouds,190,2013-08-25 04:48:00
11:53 PM,77.0,70.0,79,29.98,10.0,SSW,9.2,18.4,N/A,,Scattered Clouds,200,2013-08-25 04:53:00